カタログに戻る

ZY 3 2

運用中科学SSO
NORAD 41556·PAYLOAD·🇨🇳 China

打ち上げ May 30, 2016 から Taiyuan Satellite Launch Center

Loading…

次のパス (今後24時間)

TLE

最新Source: Space-Track

元期: Sep 14, 2026, 12:16 UTC

1 41556U 16033A   26257.51159979  .00003702  00000-0  16847-3 0  9993
2 41556  97.3766 331.5335 0012670 353.9620   6.1461 15.21263062571568

AllMySatでZY 3 2をリアルタイム追跡

Download on the App Store